This demonstration page uses our WeatherBlox Daily Observations layout. Learn more.

Left ArrowRight Arrow

34.74481, -87.66753

Hourly Observations for September 13, 2019

Temp ( °F °C ) Dew Point ( °F °C ) Humidity (%) Winds ( mph kmh ) Pressure ( in mb ) Visibility ( mi km ) Precip ( " mm )
12:53 am 00:53 Clear 74 23.3 71 21.7 91 91 Calm 30.10 1019 9 14 0.00 0.00
1:53 am 01:53 Clear 73 22.8 70 21.1 90 90 Calm 30.11 1020 9 14 0.00 0.00
2:53 am 02:53 Clear 72 22.2 69 20.6 91 91 Calm 30.10 1019 8 13 0.00 0.00
3:53 am 03:53 Clear with Mist and Fog 72 22.2 70 21.1 94 94 Calm 30.10 1019 4 6 0.00 0.00
4:10 am 04:10 Clear with Mist and Fog 71 21.7 69 20.6 94 94 Calm 30.10 1019 2 3 0.00 0.00
4:19 am 04:19 Clear with Mist and Fog 73 22.8 70 21.1 90 90 Calm 30.11 1020 3 5 0.00 0.00
4:53 am 04:53 Clear with Mist and Fog 71 21.7 69 20.6 94 94 Calm 30.11 1020 6 10 0.00 0.00
5:14 am 05:14 Clear with Mist and Fog 71 21.7 69 20.6 94 94 Calm 30.12 1020 3 4 0.00 0.00
5:21 am 05:21 Clear 71 21.7 68 20 90 90 Calm 30.12 1020 7 11 0.00 0.00
6:53 am 06:53 Sunny with Mist and Fog 72 22.2 70 21.1 94 94 Calm 30.13 1020 3 5 0.00 0.00
7:53 am 07:53 Sunny 78 25.6 73 22.8 85 85 Calm 30.14 1021 7 11 0.00 0.00
8:53 am 08:53 Sunny 83 28.3 73 22.8 72 72 Calm 30.14 1021 9 14 0.00 0.00
9:53 am 09:53 Sunny 89 31.7 73 22.8 59 59 Calm 30.15 1021 10 16 0.00 0.00
10:53 am 10:53 Sunny 93 33.9 73 22.8 52 52 VRB 5 7 30.15 1021 10 16 0.00 0.00
11:53 am 11:53 Sunny 96 35.6 70 21.1 43 43 VRB 3 6 30.14 1021 10 16 0.00 0.00
12:53 pm 12:53 Sunny 97 36.1 67 19.4 37 37 NNE 7 11 30.14 1021 10 16 0.00 0.00
1:53 pm 13:53 Sunny 99 37.2 66 18.9 34 34 NNW 8 13 30.12 1020 10 16 0.00 0.00
2:53 pm 14:53 Sunny 99 37.2 68 20 37 37 NNW 7 11 30.10 1019 10 16 0.00 0.00
3:53 pm 15:53 Sunny 99 37.2 67 19.4 35 35 WNW 8 13 30.08 1019 10 16 0.00 0.00
4:53 pm 16:53 Sunny 97 36.1 69 20.6 40 40 WNW 8 13 30.08 1019 10 16 0.00 0.00
5:53 pm 17:53 Sunny 94 34.4 69 20.6 44 44 WNW 7 11 30.07 1018 10 16 0.00 0.00
6:53 pm 18:53 Sunny 90 32.2 72 22.2 56 56 NW 3 6 30.08 1019 10 16 0.00 0.00
7:53 pm 19:53 Clear 87 30.6 71 21.7 59 59 N 3 6 30.09 1019 10 16 0.00 0.00
8:53 pm 20:53 Clear 85 29.4 70 21.1 61 61 NNE 3 6 30.11 1020 10 16 0.00 0.00
9:53 pm 21:53 Clear 81 27.2 71 21.7 72 72 Calm 30.13 1020 10 16 0.00 0.00
10:53 pm 22:53 Clear 82 27.8 70 21.1 67 67 N 3 6 30.13 1020 10 16 0.00 0.00
11:53 pm 23:53 Clear 77 25 71 21.7 82 82 Calm 30.12 1020 10 16 0.00 0.00

Powered by AerisWeather